Probability
6 7 7 8 8 11 14 11 6 3 7 22 37 41 34 19 6 2 1 0 0 0 0 0 0 0 0 0 0 0 0 0 0 0 1 1 3 4
6 6 7 8 9 11 14 13 10 7 10 25 42 46 36 19 6 2 2 0 0 0 0 0 0 0 0 0 0 0 0 0 0 0 1 1 1 2
3 3 3 6 9 11 12 13 14 13 15 26 41 47 39 21 7 3 2 0 0 0 0 0 0 0 0 0 0 0 0 0 0 0 0 0 0 0
1 1 1 3 6 9 10 11 14 17 18 23 33 40 36 23 10 4 2 1 0 0 0 0 0 0 0 0 0 0 0 0 0 0 0 0 0 0
0 0 0 1 3 6 8 8 10 15 20 24 28 33 30 21 11 5 3 1 0 0 0 0 0 0 0 0 0 0 0 0 0 0 0 0 0 0
1 0 0 0 1 3 5 6 7 11 17 22 27 30 26 17 9 6 3 1 0 0 0 0 0 0 0 0 0 0 0 0 0 0 0 0 0 0
1 1 1 0 0 1 2 3 5 7 11 16 23 28 24 14 9 7 4 1 0 0 0 0 0 0 0 0 0 0 0 0 0 0 0 0 0 0
1 0 0 0 0 0 1 1 2 4 6 10 17 22 19 13 9 8 4 1 0 0 0 0 0 0 0 0 0 0 0 0 0 0 0 0 0 0
0 0 0 0 0 0 0 0 0 1 3 6 10 13 13 10 7 6 5 2 0 0 0 0 0 0 0 0 0 0 0 0 0 0 0 0 0 0
0 0 0 0 0 0 0 0 0 0 1 2 5 6 7 7 5 4 4 3 1 0 0 0 0 0 0 0 0 0 0 0 0 0 0 0 0 0
0 0 0 0 0 0 0 0 0 0 0 0 1 1 2 3 2 2 2 2 1 0 0 0 0 0 0 0 0 0 0 0 0 0 0 0 0 0
0 0 0 0 0 0 0 0 0 0 0 0 0 0 0 0 0 1 1 1 0 0 0 0 0 0 0 0 0 0 0 0 0 0 0 0 0 0
0 0 0 0 0 0 0 0 0 0 0 0 0 0 0 0 0 1 1 1 0 0 0 0 0 0 0 0 0 0 0 0 0 0 0 0 0 0
0 0 0 0 0 0 0 0 0 0 0 0 0 0 1 1 1 1 2 2 1 0 0 0 0 0 0 0 0 0 0 0 0 0 0 0 0 0
0 0 0 0 0 0 0 0 0 0 0 0 0 0 1 2 2 2 2 2 1 0 0 0 0 0 0 0 0 0 0 0 0 0 0 0 0 0
0 0 0 0 0 0 0 0 0 0 0 0 0 0 0 1 2 2 1 1 0 0 0 0 0 0 0 0 0 0 0 0 0 0 0 0 0 0
0 0 0 0 0 0 0 0 0 0 0 0 0 0 0 1 2 1 0 0 0 0 0 0 0 0 0 0 0 0 0 0 0 0 0 0 0 0
0 0 0 0 0 0 0 0 0 0 0 0 0 0 0 0 1 1 0 0 0 0 0 0 0 0 0 0 0 0 0 0 0 0 0 0 0 0
0 0 0 0 0 0 0 0 0 0 0 0 0 0 0 0 0 0 0 0 0 0 0 0 0 0 0 0 0 0 0 0 0 0 0 0 0 0
0 0 0 0 0 0 0 0 0 0 0 0 0 0 0 0 0 0 0 0 0 0 0 0 0 0 0 0 0 0 0 0 0 0 0 0 0 0
0 0 0 0 0 0 0 0 0 0 0 0 0 0 0 0 0 0 0 0 0 0 0 0 0 0 0 0 0 0 0 0 0 0 0 0 0 0
0 0 0 0 0 0 0 0 0 0 0 0 0 0 0 0 0 0 0 0 0 0 0 0 0 0 0 0 0 0 0 0 0 0 0 0 0 0
0 0 0 0 0 0 0 0 0 0 0 0 0 0 0 0 0 0 0 0 0 0 0 0 0 0 0 0 0 0 0 0 0 0 0 0 0 0
Wind_Speed
4 4 4 4 5 6 4 3 2 3 4 4 3 5 5 6 7 5 5 6 6 7 8 9 9 9 10 10 11 11 11 10 10 10 10 11 11 11
4 4 4 3 4 5 5 4 3 2 3 3 4 7 7 7 7 6 8 9 7 6 7 8 8 8 8 8 9 9 9 8 8 8 8 8 8 8
6 5 5 5 4 4 4 4 4 3 2 2 4 7 8 9 7 7 7 6 6 8 8 9 9 9 9 9 9 9 8 8 7 7 6 6 5 5
7 7 6 5 6 4 4 5 4 4 2 4 4 6 8 9 8 7 7 7 6 10 11 11 11 11 11 11 11 10 10 9 8 8 7 7 6 5
8 8 8 7 6 5 5 4 4 4 2 4 5 5 6 8 8 8 9 7 7 9 11 12 13 13 13 13 13 12 12 11 11 11 10 10 10 10
8 8 8 8 7 7 6 6 5 4 3 3 5 6 7 8 8 8 7 6 6 7 8 9 13 14 14 14 14 14 14 13 13 13 13 13 12 12
9 9 9 10 11 8 6 6 6 5 4 4 5 6 7 9 8 6 7 6 6 6 7 6 7 7 8 11 13 15 14 14 14 14 14 13 13 13
9 9 9 10 12 12 11 9 8 7 7 6 5 7 9 9 8 9 9 8 5 5 6 6 6 7 6 6 10 14 14 14 14 14 13 13 13 13
8 8 10 11 12 10 10 11 10 9 8 5 7 7 7 9 11 11 10 8 5 7 6 6 7 7 7 8 12 13 13 14 14 14 13 13 13 12
8 8 9 8 9 10 10 9 9 9 9 7 5 4 4 5 8 10 10 8 7 5 5 7 7 7 8 6 10 12 12 13 13 13 13 13 13 13
9 9 10 10 10 12 10 9 8 7 9 10 8 5 5 6 7 9 10 10 9 5 3 5 7 7 6 5 6 10 11 11 11 12 12 13 13 12
7 8 11 11 11 12 9 8 8 7 7 8 8 7 6 7 10 10 12 12 10 6 4 5 8 6 5 4 4 4 5 7 9 10 10 10 7 4
6 6 6 11 12 13 10 6 6 6 7 7 7 7 6 6 8 8 9 10 10 6 8 7 8 6 6 6 4 5 5 5 4 5 6 7 5 3
3 3 3 9 12 13 9 6 6 5 5 6 6 7 7 7 7 9 9 7 6 7 12 9 7 7 8 7 5 7 6 5 5 5 5 5 4 4
1 1 1 7 10 9 9 8 7 4 4 5 6 6 6 7 7 7 7 6 6 7 10 6 7 7 7 6 8 8 7 6 5 5 5 4 4 4
3 2 4 7 7 6 8 7 5 5 5 5 6 6 6 7 7 7 7 7 6 4 5 5 7 9 6 7 9 9 7 7 7 6 5 5 4 4
2 3 3 4 5 5 6 7 7 6 6 4 5 6 6 7 7 7 8 8 7 7 6 3 3 4 6 7 9 9 7 6 6 6 6 5 5 5
1 3 4 5 6 7 7 7 7 7 6 6 5 6 7 7 7 8 8 9 9 8 8 7 6 4 4 2 6 8 7 6 6 6 5 5 6 5
2 3 4 5 5 6 6 7 7 7 6 6 6 6 7 8 9 9 9 9 9 9 8 8 8 8 9 8 6 9 8 6 7 6 5 4 5 6
5 5 4 5 5 5 5 5 5 5 6 6 6 7 8 9 9 10 10 10 9 8 8 8 9 9 8 8 6 6 9 8 7 7 6 4 2 5
6 5 5 5 5 5 4 4 4 4 5 6 6 7 8 9 9 10 10 13 10 9 11 10 9 10 4 5 7 5 5 6 8 7 8 5 4 4
4 4 4 4 4 4 3 3 4 4 5 5 6 7 7 8 10 11 11 12 10 9 9 8 7 7 5 6 8 8 6 4 4 7 7 5 5 7
3 3 3 4 4 3 3 4 5 5 5 5 6 7 8 9 9 9 10 11 10 9 9 9 8 6 5 5 6 7 9 7 5 4 3 6 9 8
Wind_Direction
257 266 262 270 283 288 291 276 217 201 191 172 147 141 123 114 140 136 125 129 156 172 177 180 184 188 192 194 195 195 197 200 206 210 213 217 219 222
236 245 256 261 267 279 286 291 281 236 214 174 155 144 136 131 132 117 111 109 103 131 144 150 154 158 164 167 170 174 179 185 190 192 194 198 207 216
236 231 234 245 257 265 278 281 276 264 230 171 138 137 131 130 126 123 127 110 95 100 115 123 128 130 135 140 143 146 149 154 159 164 171 174 183 193
231 225 223 226 236 243 256 269 268 264 210 172 151 145 142 135 135 133 124 111 102 97 101 104 108 111 114 116 117 120 121 123 124 127 127 125 124 124
231 223 218 215 223 227 231 246 263 263 239 184 171 156 144 139 132 122 115 116 110 108 100 97 99 101 103 105 106 108 108 107 106 104 103 100 98 96
235 228 219 212 211 213 222 225 230 243 237 209 178 162 151 146 138 134 131 134 129 122 102 102 102 99 101 104 106 106 105 104 102 100 99 96 94 92
233 229 225 214 208 203 207 212 215 217 218 214 195 172 160 159 156 150 142 131 119 128 126 124 117 107 101 103 106 110 108 106 104 102 101 99 96 93
240 234 232 220 210 202 200 196 198 206 209 204 203 190 178 169 158 153 148 147 141 154 142 137 131 116 109 96 110 113 111 110 109 107 105 102 99 96
239 238 240 227 199 194 197 196 199 204 205 204 209 203 182 174 165 159 160 161 143 155 139 120 109 96 90 99 113 114 114 114 114 113 109 105 100 96
233 230 233 243 218 191 189 196 201 200 199 203 206 198 187 179 173 163 155 130 118 131 130 119 116 105 99 100 110 115 116 117 118 118 115 110 104 97
232 229 224 230 223 194 189 193 195 197 199 198 187 181 184 184 169 152 148 145 143 143 128 115 125 114 105 106 113 117 120 124 126 127 126 124 121 109
230 230 226 224 213 192 191 191 194 194 187 185 185 183 189 185 179 170 160 156 147 145 156 126 145 136 124 125 134 138 124 126 133 137 142 149 151 128
230 221 223 208 200 196 196 196 197 185 184 181 181 180 185 184 183 178 169 164 159 151 158 143 158 153 132 139 151 163 153 153 152 153 172 193 213 204
242 232 217 192 188 188 192 180 170 175 181 183 183 183 184 182 183 178 171 167 161 150 160 156 157 165 140 141 149 162 164 169 169 169 179 198 228 183
314 335 210 180 182 187 194 176 171 189 195 195 193 188 184 176 171 164 158 148 128 138 155 157 151 152 148 147 148 158 164 176 181 175 169 174 180 161
225 217 166 171 190 189 178 184 199 212 207 201 197 184 173 168 170 161 153 144 126 118 132 144 154 154 151 148 148 158 164 170 178 176 171 177 179 179
192 186 184 175 196 201 194 190 198 209 217 207 195 184 171 165 165 157 152 147 144 152 154 145 137 136 142 145 154 163 166 166 168 173 169 175 185 183
196 200 210 204 204 205 204 198 198 203 203 197 192 184 174 170 165 158 161 161 157 157 161 160 152 139 140 162 169 164 167 166 164 169 172 173 180 179
239 222 218 216 218 220 212 203 198 200 195 190 185 180 172 168 166 164 165 164 162 160 164 165 166 165 170 174 181 177 168 162 158 165 185 184 178 172
236 235 223 222 224 227 221 208 200 191 187 186 178 174 172 170 169 167 166 167 162 157 160 171 178 178 177 167 153 166 175 161 158 168 185 194 155 153
225 231 231 227 223 222 212 203 203 193 181 176 175 172 169 167 168 167 165 165 162 163 171 180 186 176 159 137 143 151 156 163 163 168 176 176 167 153
241 233 230 227 218 214 210 199 194 184 179 177 172 170 168 166 166 166 166 168 171 171 173 171 165 172 177 166 162 159 153 143 138 146 159 171 175 180
241 234 226 225 212 196 200 202 198 187 180 175 170 168 167 166 166 166 166 167 169 168 165 164 167 176 186 174 159 156 158 159 160 154 142 129 115 117